Hourly Weather Holyshiv

Today, 16 April, Friday

Time Temperature Precipitation Wind Pressure Humidity
00:00 +1°C° 0.6 mm 5 mps 742 mmHg 96%
01:00 +1°C° 0.6 mm 5 mps 742 mmHg 96%
02:00 +1°C° 0 mm 5 mps 742 mmHg 97%
03:00 +1°C° 0.3 mm 4 mps 741 mmHg 97%
04:00 +1°C° 0.3 mm 4 mps 741 mmHg 97%
05:00 +1°C° 0.3 mm 4 mps 741 mmHg 97%
06:00 +1°C° 0.3 mm 4 mps 741 mmHg 97%
07:00 +1°C° 0.3 mm 4 mps 741 mmHg 97%
08:00 +1°C° 0 mm 4 mps 741 mmHg 97%
09:00 +1°C° 0.4 mm 4 mps 741 mmHg 97%
10:00 +1°C° 0.4 mm 4 mps 741 mmHg 97%
11:00 +3°C° 0.4 mm 4 mps 741 mmHg 97%
12:00 +3°C° 0.3 mm 4 mps 741 mmHg 96%
13:00 +3°C° 0.3 mm 4 mps 742 mmHg 96%
14:00 +3°C° 0.3 mm 4 mps 742 mmHg 96%
15:00 +3°C° 0.2 mm 4 mps 742 mmHg 96%
16:00 +1°C° 0.2 mm 5 mps 742 mmHg 96%
17:00 +1°C° 0.2 mm 5 mps 742 mmHg 96%
18:00 +1°C° 0.1 mm 5 mps 743 mmHg 96%
19:00 +1°C° 0.1 mm 4 mps 743 mmHg 97%
20:00 0°C° 0.1 mm 4 mps 743 mmHg 97%
21:00 0°C° 0.2 mm 4 mps 743 mmHg 97%
22:00 +1°C° 0.2 mm 3 mps 744 mmHg 97%
23:00 +1°C° 0.2 mm 3 mps 744 mmHg 97%

Tomorrow, 17 April, Saturday

Time Temperature Precipitation Wind Pressure Humidity
00:00 +1°C° 0 mm 3 mps 744 mmHg 97%
01:00 +1°C° 0 mm 3 mps 744 mmHg 97%
02:00 +1°C° 0 mm 3 mps 744 mmHg 97%
03:00 +2°C° 0 mm 2 mps 745 mmHg 97%
04:00 +2°C° 0 mm 2 mps 745 mmHg 97%
05:00 +2°C° 0 mm 2 mps 745 mmHg 97%
06:00 +2°C° 0 mm 2 mps 745 mmHg 97%
07:00 +3°C° 0 mm 2 mps 746 mmHg 97%
08:00 +3°C° 0 mm 2 mps 746 mmHg 96%
09:00 +4°C° 0 mm 2 mps 746 mmHg 95%
10:00 +4°C° 0 mm 2 mps 746 mmHg 93%
11:00 +5°C° 0 mm 2 mps 747 mmHg 91%
12:00 +5°C° 0 mm 2 mps 747 mmHg 90%
13:00 +6°C° 0 mm 2 mps 747 mmHg 88%
14:00 +6°C° 0 mm 2 mps 747 mmHg 86%
15:00 +6°C° 0 mm 2 mps 747 mmHg 85%
16:00 +6°C° 0 mm 2 mps 747 mmHg 83%
17:00 +7°C° 0 mm 1 mps 747 mmHg 82%
18:00 +6°C° 0 mm 2 mps 747 mmHg 85%
19:00 +5°C° 0 mm 2 mps 748 mmHg 88%
20:00 +5°C° 0 mm 2 mps 748 mmHg 91%
21:00 +4°C° 0 mm 2 mps 748 mmHg 92%
22:00 +4°C° 0 mm 2 mps 748 mmHg 93%
23:00 +3°C° 0 mm 2 mps 747 mmHg 94%

Day after tomorrow, 18 April, Sunday

Time Temperature Precipitation Wind Pressure Humidity
00:00 +3°C° 0 mm 2 mps 747 mmHg 94%
01:00 +3°C° 0 mm 2 mps 747 mmHg 95%
02:00 +2°C° 0 mm 2 mps 747 mmHg 95%
03:00 +2°C° 0 mm 2 mps 747 mmHg 95%
04:00 +2°C° 0 mm 2 mps 747 mmHg 96%
05:00 +2°C° 0 mm 2 mps 747 mmHg 96%
06:00 +2°C° 0 mm 3 mps 747 mmHg 93%
07:00 +3°C° 0 mm 3 mps 746 mmHg 89%
08:00 +5°C° 0 mm 3 mps 746 mmHg 86%
09:00 +7°C° 0 mm 3 mps 746 mmHg 82%
10:00 +9°C° 0 mm 3 mps 746 mmHg 78%
11:00 +10°C° 0 mm 3 mps 746 mmHg 74%
12:00 +10°C° 0 mm 3 mps 746 mmHg 78%
13:00 +9°C° 0 mm 2 mps 746 mmHg 81%
14:00 +9°C° 0 mm 2 mps 746 mmHg 84%
15:00 +9°C° 0.1 mm 2 mps 746 mmHg 83%
16:00 +9°C° 0.1 mm 2 mps 746 mmHg 82%
17:00 +9°C° 0.1 mm 2 mps 746 mmHg 81%
18:00 +8°C° 0 mm 2 mps 746 mmHg 83%
19:00 +8°C° 0 mm 2 mps 746 mmHg 85%
20:00 +7°C° 0 mm 2 mps 746 mmHg 87%
21:00 +6°C° 0 mm 2 mps 746 mmHg 87%
22:00 +6°C° 0 mm 1 mps 746 mmHg 87%
23:00 +6°C° 0 mm 1 mps 746 mmHg 86%

19 April, Monday

Time Temperature Precipitation Wind Pressure Humidity
00:00 +5°C° 0 mm 1 mps 746 mmHg 87%
01:00 +4°C° 0 mm 2 mps 746 mmHg 87%
02:00 +4°C° 0 mm 2 mps 746 mmHg 87%
03:00 +3°C° 0 mm 2 mps 746 mmHg 88%
04:00 +3°C° 0 mm 2 mps 746 mmHg 88%
05:00 +3°C° 0 mm 2 mps 745 mmHg 89%
06:00 +4°C° 0 mm 2 mps 745 mmHg 86%
07:00 +6°C° 0 mm 2 mps 745 mmHg 82%
08:00 +7°C° 0 mm 2 mps 745 mmHg 79%
09:00 +8°C° 0 mm 2 mps 745 mmHg 73%
10:00 +10°C° 0 mm 3 mps 745 mmHg 67%
11:00 +11°C° 0 mm 3 mps 744 mmHg 61%
12:00 +11°C° 0 mm 3 mps 744 mmHg 62%
13:00 +11°C° 0 mm 3 mps 744 mmHg 63%
14:00 +10°C° 0 mm 3 mps 743 mmHg 65%
15:00 +10°C° 0 mm 3 mps 743 mmHg 65%
16:00 +10°C° 0 mm 3 mps 743 mmHg 66%
17:00 +10°C° 0 mm 3 mps 743 mmHg 67%
18:00 +9°C° 0 mm 3 mps 743 mmHg 72%
19:00 +8°C° 0 mm 3 mps 742 mmHg 76%
20:00 +7°C° 0 mm 2 mps 742 mmHg 81%
21:00 +7°C° 0 mm 2 mps 742 mmHg 83%
22:00 +6°C° 0 mm 2 mps 741 mmHg 85%
23:00 +5°C° 0 mm 3 mps 741 mmHg 88%

20 April, Tuesday

Time Temperature Precipitation Wind Pressure Humidity
00:00 +6°C° 0 mm 2 mps 741 mmHg 89%
01:00 +5°C° 0 mm 2 mps 740 mmHg 91%
02:00 +5°C° 0 mm 2 mps 740 mmHg 93%
03:00 +5°C° 0 mm 2 mps 739 mmHg 93%
04:00 +5°C° 0 mm 2 mps 739 mmHg 94%
05:00 +5°C° 0 mm 2 mps 739 mmHg 94%
06:00 +5°C° 0 mm 3 mps 739 mmHg 90%
07:00 +5°C° 0 mm 4 mps 738 mmHg 85%
08:00 +6°C° 0 mm 4 mps 738 mmHg 80%
09:00 +6°C° 0.1 mm 5 mps 737 mmHg 76%
10:00 +7°C° 0.1 mm 5 mps 737 mmHg 71%
11:00 +8°C° 0.1 mm 6 mps 737 mmHg 67%
12:00 +8°C° 0.1 mm 6 mps 737 mmHg 64%
13:00 +9°C° 0.1 mm 6 mps 736 mmHg 62%
14:00 +9°C° 0.1 mm 7 mps 736 mmHg 59%
15:00 +9°C° 0.1 mm 7 mps 736 mmHg 61%
16:00 +9°C° 0.1 mm 7 mps 736 mmHg 63%
17:00 +9°C° 0.1 mm 7 mps 736 mmHg 65%
18:00 +8°C° 0 mm 6 mps 736 mmHg 69%
19:00 +7°C° 0 mm 5 mps 736 mmHg 73%
20:00 +6°C° 0 mm 4 mps 736 mmHg 78%
21:00 +5°C° 0.1 mm 5 mps 736 mmHg 80%
22:00 +4°C° 0.1 mm 6 mps 736 mmHg 82%
23:00 +4°C° 0.1 mm 6 mps 736 mmHg 85%

21 April, Wednesday

Time Temperature Precipitation Wind Pressure Humidity
00:00 +4°C° 0.1 mm 6 mps 737 mmHg 85%
01:00 +4°C° 0.1 mm 6 mps 737 mmHg 86%
02:00 +4°C° 0.1 mm 6 mps 737 mmHg 86%
03:00 +4°C° 0 mm 6 mps 737 mmHg 85%
04:00 +4°C° 0 mm 6 mps 737 mmHg 84%
05:00 +4°C° 0 mm 6 mps 737 mmHg 83%
06:00 +4°C° 0 mm 7 mps 738 mmHg 83%
07:00 +4°C° 0 mm 7 mps 738 mmHg 83%
08:00 +5°C° 0 mm 7 mps 739 mmHg 83%
09:00 +6°C° 0 mm 7 mps 739 mmHg 76%
10:00 +8°C° 0 mm 7 mps 739 mmHg 70%
11:00 +9°C° 0 mm 7 mps 740 mmHg 63%
12:00 +9°C° 0 mm 7 mps 740 mmHg 62%
13:00 +9°C° 0 mm 6 mps 740 mmHg 60%
14:00 +10°C° 0 mm 6 mps 741 mmHg 59%
15:00 +10°C° 0.1 mm 5 mps 741 mmHg 59%
16:00 +10°C° 0.1 mm 5 mps 741 mmHg 59%
17:00 +12°C° 0.1 mm 5 mps 741 mmHg 59%
18:00 +10°C° 0 mm 4 mps 742 mmHg 65%
19:00 +9°C° 0 mm 2 mps 743 mmHg 71%
20:00 +8°C° 0 mm 1 mps 743 mmHg 76%
21:00 +8°C° 0 mm 1 mps 743 mmHg 78%
22:00 +7°C° 0 mm 1 mps 744 mmHg 79%
23:00 +7°C° 0 mm 1 mps 744 mmHg 80%
Show more